QPF
0.00 0.00 0.00 0.00 0.00 0.00 0.00 0.00 0.00 0.00 0.00 0.00 0.00 0.00 0.00 0.00 0.00 0.00 0.00 0.00 0.00 0.00 0.00 0.00 0.00 0.00 0.00 0.00 0.00 0.00 0.00 0.00
0.00 0.00 0.00 0.00 0.00 0.00 0.00 0.00 0.00 0.00 0.00 0.00 0.00 0.00 0.00 0.00 0.00 0.00 0.00 0.00 0.00 0.00 0.00 0.00 0.00 0.00 0.00 0.00 0.00 0.00 0.00 0.00
0.00 0.00 0.00 0.00 0.00 0.00 0.00 0.00 0.00 0.00 0.00 0.00 0.00 0.00 0.00 0.00 0.00 0.01 0.00 0.00 0.00 0.00 0.00 0.00 0.00 0.00 0.00 0.00 0.00 0.00 0.00 0.00
0.00 0.00 0.00 0.00 0.00 0.00 0.00 0.00 0.00 0.00 0.00 0.00 0.00 0.01 0.03 0.03 0.05 0.01 0.00 0.00 0.00 0.00 0.00 0.00 0.00 0.00 0.02 0.01 0.00 0.00 0.01 0.00
0.00 0.00 0.00 0.00 0.00 0.00 0.00 0.00 0.00 0.00 0.00 0.00 0.01 0.04 0.09 0.06 0.08 0.03 0.04 0.01 0.02 0.01 0.01 0.01 0.02 0.01 0.05 0.08 0.07 0.11 0.09 0.08
0.00 0.00 0.00 0.00 0.00 0.00 0.00 0.00 0.00 0.00 0.01 0.03 0.07 0.10 0.04 0.04 0.13 0.21 0.22 0.17 0.07 0.04 0.04 0.02 0.02 0.01 0.01 0.05 0.10 0.11 0.14 0.14
0.00 0.00 0.00 0.00 0.00 0.00 0.00 0.00 0.00 0.01 0.04 0.03 0.04 0.07 0.10 0.12 0.16 0.23 0.15 0.03 0.01 0.00 0.00 0.00 0.00 0.00 0.01 0.06 0.04 0.01 0.02 0.04
0.00 0.00 0.00 0.00 0.00 0.00 0.00 0.00 0.02 0.05 0.04 0.02 0.08 0.14 0.17 0.23 0.25 0.14 0.01 0.00 0.00 0.00 0.00 0.00 0.00 0.01 0.05 0.05 0.01 0.00 0.00 0.00
0.00 0.00 0.00 0.00 0.00 0.00 0.00 0.00 0.01 0.00 0.00 0.04 0.06 0.13 0.16 0.14 0.08 0.02 0.00 0.00 0.00 0.00 0.00 0.00 0.00 0.01 0.02 0.00 0.00 0.00 0.00 0.01
0.00 0.00 0.00 0.00 0.00 0.00 0.00 0.01 0.02 0.03 0.06 0.11 0.23 0.18 0.08 0.05 0.03 0.00 0.00 0.00 0.00 0.00 0.00 0.00 0.01 0.01 0.01 0.00 0.00 0.00 0.00 0.01
0.00 0.00 0.00 0.00 0.00 0.01 0.00 0.03 0.12 0.16 0.19 0.20 0.12 0.03 0.00 0.01 0.01 0.00 0.00 0.00 0.00 0.00 0.00 0.00 0.00 0.00 0.00 0.00 0.00 0.00 0.00 0.00
0.00 0.00 0.00 0.00 0.01 0.00 0.00 0.00 0.03 0.02 0.05 0.02 0.00 0.00 0.00 0.00 0.00 0.00 0.00 0.00 0.00 0.00 0.00 0.00 0.00 0.00 0.00 0.00 0.00 0.00 0.00 0.00
0.00 0.00 0.00 0.01 0.02 0.01 0.01 0.00 0.00 0.00 0.00 0.00 0.00 0.00 0.00 0.00 0.00 0.00 0.00 0.00 0.00 0.00 0.00 0.00 0.00 0.00 0.00 0.00 0.00 0.00 0.00 0.00
0.00 0.00 0.01 0.03 0.02 0.00 0.00 0.00 0.00 0.00 0.00 0.00 0.00 0.00 0.00 0.00 0.00 0.00 0.00 0.00 0.00 0.00 0.00 0.00 0.00 0.00 0.00 0.00 0.00 0.00 0.00 0.00
0.00 0.00 0.00 0.01 0.01 0.01 0.01 0.01 0.01 0.00 0.00 0.00 0.00 0.00 0.00 0.00 0.00 0.00 0.00 0.00 0.00 0.00 0.00 0.00 0.00 0.00 0.00 0.00 0.00 0.00 0.00 0.00
0.00 0.00 0.00 0.00 0.02 0.01 0.02 0.01 0.00 0.00 0.00 0.00 0.00 0.00 0.00 0.00 0.00 0.00 0.00 0.00 0.00 0.00 0.00 0.00 0.00 0.00 0.00 0.00 0.01 0.00 0.00 0.00
0.00 0.00 0.00 0.00 0.00 0.00 0.00 0.00 0.00 0.00 0.00 0.00 0.00 0.00 0.00 0.00 0.00 0.00 0.00 0.00 0.00 0.00 0.00 0.00 0.00 0.00 0.00 0.00 0.01 0.01 0.01 0.00
0.00 0.00 0.00 0.00 0.00 0.00 0.00 0.00 0.00 0.00 0.00 0.00 0.00 0.00 0.00 0.00 0.00 0.00 0.00 0.00 0.00 0.00 0.00 0.00 0.00 0.00 0.00 0.00 0.00 0.00 0.01 0.01
0.00 0.00 0.00 0.00 0.00 0.00 0.00 0.00 0.00 0.00 0.00 0.00 0.00 0.00 0.00 0.00 0.00 0.00 0.00 0.00 0.00 0.00 0.00 0.00 0.00 0.00 0.00 0.00 0.00 0.00 0.00 0.00
0.00 0.00 0.00 0.00 0.00 0.00 0.00 0.00 0.00 0.00 0.00 0.00 0.00 0.00 0.00 0.00 0.00 0.00 0.00 0.00 0.00 0.00 0.00 0.00 0.00 0.00 0.00 0.00 0.00 0.00 0.00 0.00
MSLP
1012.19 1012.93 1013.61 1014.13 1014.49 1014.90 1015.30 1015.70 1015.90 1016.20 1016.50 1016.87 1017.24 1017.56 1017.83 1017.90 1018.03 1018.02 1018.01 1017.98 1018.26 1018.34 1018.44 1018.57 1018.57 1018.62 1018.53 1018.52 1018.46 1018.25 1017.71 1015.88
1012.01 1012.70 1013.44 1013.92 1014.48 1015.10 1015.37 1015.69 1016.00 1016.27 1016.56 1016.83 1017.16 1017.57 1017.91 1018.05 1018.20 1018.36 1018.37 1018.31 1018.31 1018.40 1018.49 1018.55 1018.66 1018.73 1018.64 1018.63 1018.46 1018.24 1017.47 1016.14
1011.83 1012.32 1013.01 1013.47 1013.84 1014.78 1015.54 1015.94 1016.26 1016.49 1016.62 1016.84 1017.13 1017.04 1017.32 1017.75 1017.80 1017.96 1018.48 1018.51 1018.54 1018.60 1018.53 1018.52 1018.56 1018.51 1018.41 1018.29 1018.43 1017.46 1016.77 1016.01
1011.74 1012.28 1012.63 1013.00 1012.98 1014.21 1014.99 1015.53 1015.89 1016.10 1016.28 1016.60 1016.79 1016.48 1016.58 1016.79 1017.22 1017.79 1018.17 1018.42 1018.48 1018.49 1018.47 1018.46 1018.44 1017.45 1017.89 1018.30 1017.66 1016.79 1016.59 1016.28
1011.21 1012.09 1012.43 1012.74 1012.46 1013.48 1014.09 1014.33 1014.88 1015.27 1015.55 1015.91 1016.23 1016.30 1016.65 1016.80 1017.27 1017.39 1017.68 1018.20 1017.80 1018.13 1018.06 1017.97 1017.17 1017.04 1017.07 1017.54 1017.34 1017.15 1016.77 1016.86
1010.90 1011.93 1012.49 1012.75 1012.52 1013.17 1013.35 1013.59 1014.16 1014.72 1015.37 1015.90 1016.30 1016.64 1016.58 1016.31 1016.81 1017.22 1017.49 1017.53 1017.48 1017.28 1017.48 1017.27 1017.45 1017.23 1016.91 1017.42 1017.61 1017.71 1017.60 1017.69
1010.47 1011.64 1012.35 1012.76 1012.81 1013.10 1013.23 1013.55 1014.24 1015.01 1015.88 1016.16 1016.43 1016.40 1016.63 1016.59 1017.04 1017.07 1017.08 1016.88 1016.27 1016.16 1016.32 1016.91 1016.87 1017.04 1016.99 1017.45 1018.25 1018.13 1018.49 1018.38
1010.15 1011.74 1012.40 1012.72 1013.09 1013.52 1014.01 1014.19 1014.57 1015.93 1016.63 1017.27 1017.11 1017.31 1017.70 1018.10 1018.19 1017.67 1015.67 1016.68 1016.50 1016.72 1017.01 1016.97 1017.06 1017.62 1018.04 1018.56 1019.02 1019.15 1019.33 1019.49
1009.77 1011.30 1012.51 1012.85 1013.45 1013.94 1014.07 1014.60 1015.50 1016.70 1017.55 1018.08 1018.49 1018.44 1018.49 1018.36 1017.91 1017.38 1018.34 1018.15 1017.56 1017.58 1017.59 1017.50 1017.49 1017.96 1019.16 1019.71 1020.15 1020.28 1020.33 1020.61
1010.02 1011.31 1012.51 1013.42 1014.16 1014.38 1014.63 1015.89 1016.63 1017.20 1017.46 1017.41 1018.57 1018.52 1018.11 1018.66 1018.57 1018.79 1018.49 1018.23 1017.97 1017.79 1017.47 1017.46 1018.21 1018.77 1019.91 1020.67 1020.72 1021.06 1021.19 1021.37
1010.51 1011.70 1012.90 1013.94 1014.55 1015.82 1016.43 1016.97 1017.35 1017.85 1017.97 1017.81 1017.59 1018.15 1017.93 1017.59 1018.08 1018.72 1018.89 1019.13 1018.63 1018.37 1017.92 1017.98 1018.32 1019.50 1020.49 1021.43 1021.78 1021.88 1021.76 1021.99
1011.20 1012.38 1013.55 1014.54 1015.53 1016.42 1016.90 1017.29 1017.67 1017.88 1018.10 1018.67 1017.65 1018.14 1018.48 1018.09 1018.68 1019.39 1020.19 1019.18 1018.45 1018.68 1018.51 1018.65 1018.40 1019.64 1020.97 1022.05 1022.44 1022.75 1022.73 1022.55
1012.02 1013.23 1014.32 1014.91 1015.74 1016.29 1016.99 1017.36 1017.71 1017.83 1017.90 1018.65 1017.76 1018.26 1018.52 1018.38 1018.27 1018.99 1018.93 1018.68 1018.84 1019.07 1019.00 1019.10 1019.28 1020.15 1021.43 1022.81 1022.97 1023.38 1023.49 1023.65
1013.07 1013.83 1014.59 1015.07 1015.46 1016.08 1016.57 1017.26 1017.68 1017.85 1018.27 1018.25 1017.81 1018.46 1018.57 1018.51 1018.57 1018.89 1018.94 1018.82 1019.24 1019.61 1019.42 1019.32 1019.31 1019.56 1019.78 1021.23 1022.45 1023.50 1023.96 1024.14
1013.75 1014.34 1014.94 1015.28 1015.38 1015.82 1016.29 1016.68 1017.41 1018.15 1018.59 1018.42 1018.23 1018.51 1018.94 1019.37 1019.52 1019.62 1019.73 1019.34 1019.06 1019.65 1019.82 1019.61 1019.51 1019.58 1019.58 1019.89 1020.76 1021.52 1023.02 1024.02
1014.42 1014.66 1014.95 1015.22 1015.18 1015.18 1015.35 1015.53 1016.37 1017.43 1018.13 1018.04 1018.39 1018.84 1019.45 1019.66 1019.85 1019.99 1019.98 1019.75 1019.58 1019.63 1019.48 1019.35 1019.37 1019.43 1019.15 1019.23 1019.41 1020.37 1021.39 1023.22
1014.23 1014.72 1015.07 1015.11 1014.86 1014.70 1015.11 1015.43 1016.11 1016.71 1016.95 1017.62 1018.26 1018.87 1019.03 1019.27 1019.58 1019.58 1019.47 1019.27 1019.47 1019.48 1019.54 1019.71 1019.62 1019.52 1018.99 1018.86 1019.14 1019.51 1020.02 1020.80
1013.79 1014.19 1014.29 1014.31 1014.36 1014.54 1014.47 1014.93 1015.03 1015.60 1016.33 1017.12 1017.71 1018.28 1018.65 1018.78 1018.91 1019.04 1019.04 1019.11 1019.30 1019.43 1019.56 1019.79 1019.93 1019.73 1019.43 1019.12 1018.90 1019.09 1019.46 1019.94
1013.51 1013.45 1013.51 1013.71 1013.85 1014.17 1014.32 1014.66 1015.04 1015.32 1016.02 1016.04 1016.43 1016.86 1017.38 1018.00 1018.26 1018.40 1018.30 1018.61 1018.97 1019.12 1019.53 1019.80 1019.84 1019.67 1019.47 1019.27 1019.07 1018.92 1018.83 1019.12
1012.59 1012.72 1013.11 1013.47 1013.81 1014.15 1014.49 1014.49 1014.65 1014.89 1015.41 1015.36 1015.94 1016.11 1016.64 1017.31 1018.00 1018.12 1018.27 1018.51 1018.94 1019.12 1019.24 1019.42 1019.53 1019.65 1019.59 1019.49 1019.23 1018.84 1018.71 1018.68
Thickness
5780 5772 5764 5758 5753 5746 5741 5735 5731 5725 5720 5715 5709 5705 5700 5698 5695 5694 5693 5693 5690 5690 5690 5688 5688 5686 5686 5685 5684 5685 5688 5700
5778 5769 5760 5754 5747 5741 5736 5731 5725 5720 5716 5711 5706 5700 5695 5692 5689 5686 5684 5685 5685 5685 5684 5684 5682 5681 5682 5680 5681 5682 5685 5694
5775 5768 5759 5752 5747 5738 5730 5724 5717 5712 5710 5706 5702 5698 5693 5688 5686 5684 5678 5678 5678 5677 5679 5679 5678 5679 5679 5680 5677 5681 5686 5689
5771 5763 5757 5751 5748 5737 5727 5719 5713 5709 5705 5701 5696 5696 5694 5690 5684 5680 5675 5673 5672 5673 5673 5674 5675 5680 5678 5674 5677 5682 5684 5683
5770 5760 5754 5747 5746 5736 5727 5722 5715 5710 5705 5700 5694 5691 5687 5684 5678 5675 5672 5668 5669 5670 5670 5671 5677 5679 5678 5674 5674 5676 5678 5675
5766 5756 5747 5741 5740 5731 5726 5721 5715 5708 5700 5693 5688 5682 5682 5681 5676 5669 5666 5663 5664 5669 5669 5671 5670 5670 5672 5667 5666 5665 5666 5664
5762 5752 5742 5735 5732 5726 5721 5717 5710 5700 5692 5685 5680 5679 5677 5673 5666 5664 5662 5663 5669 5672 5671 5667 5667 5667 5665 5660 5655 5656 5652 5653
5760 5744 5734 5729 5724 5718 5711 5708 5703 5690 5681 5673 5670 5667 5661 5654 5651 5651 5663 5656 5660 5660 5660 5660 5660 5656 5652 5648 5643 5643 5642 5641
5757 5742 5729 5724 5717 5710 5705 5701 5692 5682 5672 5663 5654 5650 5647 5651 5646 5640 5638 5637 5646 5647 5649 5649 5651 5648 5641 5637 5631 5628 5628 5626
5749 5737 5725 5716 5706 5701 5699 5687 5680 5674 5668 5662 5648 5644 5651 5640 5645 5636 5634 5634 5635 5639 5643 5642 5639 5637 5628 5622 5622 5617 5616 5613
5737 5727 5716 5706 5699 5686 5680 5674 5668 5661 5656 5654 5653 5646 5646 5646 5639 5623 5621 5619 5625 5627 5633 5632 5630 5623 5616 5608 5607 5606 5605 5602
5725 5715 5705 5694 5685 5677 5672 5667 5661 5656 5649 5641 5648 5642 5637 5636 5628 5617 5610 5620 5624 5622 5621 5618 5624 5615 5602 5594 5592 5591 5591 5591
5714 5702 5693 5688 5680 5674 5667 5660 5655 5651 5647 5638 5642 5635 5630 5630 5628 5621 5619 5620 5613 5610 5607 5607 5606 5602 5589 5578 5578 5574 5575 5574
5700 5693 5686 5682 5678 5671 5665 5656 5648 5643 5636 5637 5639 5630 5626 5622 5619 5615 5610 5610 5603 5596 5597 5600 5599 5599 5595 5587 5575 5565 5560 5561
5690 5684 5678 5674 5673 5668 5661 5655 5644 5633 5627 5627 5626 5620 5614 5608 5603 5600 5598 5600 5600 5593 5589 5589 5589 5589 5591 5588 5578 5578 5559 5552
5679 5676 5672 5668 5667 5665 5660 5657 5646 5633 5622 5621 5613 5607 5601 5596 5593 5590 5588 5588 5588 5586 5586 5584 5583 5580 5584 5583 5580 5571 5567 5550
5674 5668 5664 5662 5662 5661 5653 5648 5639 5632 5628 5618 5608 5598 5592 5586 5581 5580 5581 5582 5578 5577 5573 5570 5570 5569 5572 5573 5570 5567 5564 5559
5669 5665 5663 5662 5658 5652 5648 5641 5638 5630 5621 5611 5603 5595 5588 5583 5578 5572 5570 5567 5565 5562 5561 5558 5556 5556 5557 5558 5559 5557 5552 5549
5664 5664 5660 5656 5652 5646 5641 5634 5627 5621 5612 5610 5604 5597 5591 5583 5577 5572 5571 5565 5558 5554 5549 5545 5543 5543 5543 5543 5543 5543 5543 5542
5661 5659 5653 5647 5642 5637 5630 5627 5622 5617 5609 5606 5598 5593 5588 5579 5569 5564 5560 5555 5547 5541 5538 5535 5532 5529 5529 5528 5528 5530 5530 5529